[[{"header":{"parameterUnit":"m.s-1","parameterCategory":1,"la1":30.2991,"la2":30.254,"lo1":-89.0895,"lo2":-89.0444,"dy":0.0017,"dx":0.0017,"nx":28,"ny":28,"refTime":"2026-01-02T09:00:00:Z","depth":0,"parameterNumber":2,"parameterNumberName":"U-component_of_WINDS"},"data":[0,0,0,0,0,0,0,0,0,0,0,0,0,0,0,0,0,0,0,0,0,0,0,0,0,0,0,0,0,0,0,0,0,0,0,0,0,0,0,0,0,0,0,0,0,0,0,0,0,0,0,0,0,0,0,0,0,0,3.2052,3.2054,0,3.2187,3.2189,3.2191,3.2141,3.2138,3.2135,3.2132,3.2283,3.2289,3.2296,0,0,0,0,0,0,0,0,0,0,0,0,0,3.1767,3.1772,3.2052,3.2054,3.2056,3.2187,3.2189,3.2191,3.2142,3.2138,3.2134,3.2131,3.2281,3.2289,3.2297,0,0,0,0,0,0,0,0,0,0,0,0,0,3.1896,3.1774,3.2052,3.2047,3.2048,3.2187,3.2189,3.2191,3.2143,3.2138,3.2133,3.2129,3.2278,3.2288,3.2298,3.2454,0,0,3.233,3.2334,0,0,0,0,0,0,0,0,3.1888,3.1906,3.2046,3.2047,3.2048,3.2142,3.2143,3.228,3.2144,3.2107,3.2132,3.2127,3.2241,3.2254,3.229,3.2461,3.2468,3.233,3.2337,3.2341,3.2344,0,0,0,0,0,0,0,3.1879,3.19,3.2106,3.2048,3.205,3.2043,3.2056,3.2169,3.2199,3.211,3.2107,3.2123,3.2241,3.228,3.2293,3.247,3.233,3.2339,3.2346,3.235,3.2784,3.2789,0,0,0,0,0,0,3.1868,3.1893,3.2102,3.211,3.1955,3.2051,3.2066,3.2117,3.2197,3.2204,3.2126,3.212,3.2264,3.2281,3.2298,3.249,3.2341,3.2351,3.2357,3.2779,3.2785,3.2791,0,0,0,0,0,0,3.1862,3.1887,3.2096,3.2001,3.2027,3.2061,3.2119,3.2122,3.2161,3.2209,3.2216,3.216,3.2261,3.2283,3.2416,3.2495,3.2355,3.2365,3.2772,3.2781,3.2788,3.2874,0,0,0,0,0,0,3.1854,3.1885,3.1941,3.2002,3.2032,3.2208,3.2124,3.2128,3.2178,3.217,3.2243,3.225,3.226,3.2401,3.2427,3.2506,3.2373,3.2766,3.2776,3.2786,3.2864,3.2884,3.29,0,0,0,0,0,3.1844,3.1961,3.1944,3.1969,3.2102,3.2212,3.223,3.2235,3.2184,3.2243,3.2275,3.2248,3.2482,3.2415,3.2443,3.2528,3.2761,3.2773,3.2785,3.2856,3.288,3.29,0,0,0,0,0,0,3.191,3.1968,3.195,3.2089,3.2146,3.2204,3.2278,3.2259,3.2334,3.2325,3.2331,3.2348,3.2486,3.252,3.2445,3.2687,3.2615,3.2633,3.2659,3.2682,3.27,3.269,3.2381,0,0,0,0,0,3.1941,3.2021,3.2069,3.2188,3.2217,3.2243,3.2291,3.229,3.2351,3.2376,3.2417,3.2481,3.2569,3.2627,3.2711,3.2869,3.2887,3.2941,3.2959,3.2974,3.2991,3.3083,3.3109,3.2831,3.283,3.283,0,0,3.2005,3.2047,3.2098,3.2203,3.2246,3.2335,3.2264,3.2359,3.2427,3.2392,3.2519,3.2553,3.2625,3.2773,3.284,3.2805,3.3072,3.2989,3.3001,3.3009,3.3098,3.3125,3.3148,3.2839,3.2837,3.2836,0,0,3.2168,3.2206,3.2311,3.2356,3.2423,3.244,3.2466,3.2528,3.2548,3.2675,3.2652,3.2736,3.2886,3.294,3.2987,3.3177,3.3157,3.3204,3.33,3.339,3.3412,3.3432,3.3504,3.353,3.322,3.322,3.3221,0,3.2241,3.2369,3.2368,3.2467,3.2517,3.2486,3.2597,3.2642,3.2735,3.2772,3.2731,3.2923,3.2969,3.3131,3.3178,3.3216,3.325,3.3196,3.3408,3.3428,3.3446,3.3516,3.3542,3.3226,3.3225,3.3225,3.3224,0,3.2458,3.2548,3.2626,3.2713,3.2772,3.2876,3.2896,3.2957,3.2952,3.2976,3.3111,3.3165,3.3262,3.33,3.3297,3.3465,3.3442,3.3405,3.3333,3.3478,3.3544,3.357,3.3234,3.3232,3.323,3.3229,0,0,3.2665,3.2753,3.2782,3.2824,3.2897,3.2969,3.3076,3.3167,3.3221,3.3287,3.338,3.3511,3.3478,3.3532,3.3535,3.3614,3.3768,3.3568,3.357,3.3607,3.3963,3.3992,3.4022,3.3754,3.3759,3.3763,3.3958,0,3.2837,3.3018,3.3023,3.3191,3.3278,3.3254,3.3347,3.3406,3.3432,3.3514,3.3545,3.3638,3.3585,3.3619,3.3695,3.3732,3.384,3.3718,3.3847,3.3851,3.3831,3.4056,3.4086,3.4267,3.3983,3.3987,3.399,0,3.3061,3.3132,3.3309,3.3375,3.3411,3.3494,3.3582,3.3658,3.3728,3.3742,3.3804,3.3797,3.3912,3.3836,3.3998,3.3915,3.3969,3.3996,3.4003,3.4018,3.3931,3.408,3.4324,3.4353,3.403,3.4027,3.4024,0,3.3199,3.334,3.3465,3.3501,3.358,3.364,3.3677,3.374,3.3797,3.3875,3.3914,3.4005,3.4057,3.4131,3.4152,3.4093,3.4316,3.424,3.4336,3.4336,3.4386,3.4383,3.4646,3.4415,3.4415,3.4414,3.4414,0,3.3392,3.3502,3.3529,3.3606,3.3731,3.3739,3.3864,3.3897,3.3955,3.4043,3.4028,3.4112,3.4133,3.4223,3.4241,3.4376,3.4398,3.4418,3.4422,3.442,3.4419,3.4457,3.4447,3.4421,3.442,3.4418,3.4417,0,3.3568,3.3589,3.3725,3.3789,3.3808,3.3898,3.3956,3.4033,3.4058,3.417,3.4197,3.4239,3.4345,3.4372,3.4499,3.4511,3.4672,3.4663,3.4648,3.4649,3.4745,3.4737,3.5045,3.5088,3.4826,3.4828,3.483,0,3.369,3.3775,3.3848,3.3904,3.3943,3.4034,3.4091,3.4105,3.4166,3.4254,3.4323,3.4426,3.4509,3.468,3.4725,3.4824,3.4819,3.492,3.4834,3.4832,3.4826,3.4822,3.4833,3.4937,3.494,3.4942,3.4944,0,3.3908,3.3915,3.3996,3.4084,3.4153,3.4224,3.4291,3.4339,3.4363,3.4435,3.454,3.4605,3.4735,3.484,3.494,3.4984,3.4972,3.4971,3.4999,3.5,3.499,3.5001,3.4696,3.4964,3.4962,3.4961,3.496,3.4959,3.4064,3.4139,3.4204,3.4297,3.4349,3.4414,3.4491,3.4526,3.4614,3.4718,3.4722,3.4839,3.4913,3.5046,3.5096,3.5192,3.5162,3.5202,3.5213,3.5223,3.5234,3.4972,3.521,3.5209,3.5209,3.5208,3.5208,0,3.4283,3.4324,3.441,3.4505,3.458,3.4557,3.4632,3.4699,3.48,3.4868,3.495,3.5077,3.518,3.5234,3.5338,3.5405,3.5402,3.5432,3.5429,3.5441,3.5252,3.5219,3.5433,3.5433,3.5433,3.5433,3.5433,3.5433,3.4407,3.4535,3.4551,3.4708,3.475,3.4861,3.4907,3.497,3.5024,3.5164,3.5248,3.5282,3.5347,3.5456,3.5552,3.5566,3.5607,3.5642,3.5653,3.5476,3.5453,3.5431,3.54,3.5649,3.565,3.5834,3.5836,3.5837]},{"header":{"parameterUnit":"m.s-1","parameterCategory":1,"la1":30.2991,"la2":30.254,"lo1":-89.0895,"lo2":-89.0444,"dy":0.0017,"dx":0.0017,"nx":28,"ny":28,"refTime":"2026-01-02T09:00:00:Z","depth":0,"parameterNumber":3,"parameterNumberName":"V-component_of_WINDS"},"data":[0,0,0,0,0,0,0,0,0,0,0,0,0,0,0,0,0,0,0,0,0,0,0,0,0,0,0,0,0,0,0,0,0,0,0,0,0,0,0,0,0,0,0,0,0,0,0,0,0,0,0,0,0,0,0,0,0,0,2.5743,2.5745,0,2.5932,2.5934,2.5936,2.5972,2.5971,2.5969,2.5968,2.6168,2.6174,2.6181,0,0,0,0,0,0,0,0,0,0,0,0,0,2.5419,2.5425,2.5742,2.5745,2.5747,2.5931,2.5934,2.5937,2.5973,2.5971,2.5969,2.5967,2.6166,2.6174,2.6182,0,0,0,0,0,0,0,0,0,0,0,0,0,2.5579,2.5427,2.5742,2.5787,2.5793,2.5931,2.5934,2.5937,2.5973,2.5971,2.5969,2.5966,2.6163,2.6173,2.6183,2.6291,0,0,2.6214,2.6218,0,0,0,0,0,0,0,0,2.557,2.5591,2.5778,2.5784,2.5791,2.5926,2.5893,2.6056,2.5974,2.5905,2.5968,2.5965,2.609,2.6106,2.6146,2.63,2.6309,2.6215,2.6221,2.6225,2.6228,0,0,0,0,0,0,0,2.5559,2.5583,2.5818,2.5781,2.5789,2.58,2.5821,2.5924,2.6008,2.5911,2.5914,2.5935,2.6093,2.6136,2.6151,2.6311,2.6214,2.6223,2.6229,2.6233,2.6567,2.6569,0,0,0,0,0,0,2.5539,2.5574,2.5812,2.5823,2.5673,2.5808,2.5831,2.5885,2.6007,2.6023,2.5937,2.5936,2.612,2.6139,2.6158,2.6295,2.6225,2.6234,2.624,2.6564,2.6567,2.657,0,0,0,0,0,0,2.5532,2.556,2.5804,2.5699,2.5731,2.5816,2.5877,2.589,2.5934,2.6027,2.6042,2.5966,2.6119,2.6144,2.6258,2.6302,2.6239,2.6248,2.6561,2.6565,2.6569,2.6567,0,0,0,0,0,0,2.5522,2.5557,2.5597,2.57,2.5737,2.5898,2.588,2.5895,2.595,2.5951,2.6058,2.6074,2.6119,2.6242,2.6268,2.6315,2.6256,2.6557,2.6562,2.6567,2.6564,2.6571,2.6577,0,0,0,0,0,2.5511,2.559,2.5599,2.5627,2.5788,2.59,2.5922,2.5971,2.5954,2.5996,2.6056,2.607,2.6293,2.6254,2.6283,2.6334,2.6554,2.6561,2.6567,2.6561,2.657,2.6577,0,0,0,0,0,0,2.5492,2.5604,2.5615,2.573,2.5805,2.5906,2.5961,2.5978,2.6062,2.6059,2.6119,2.6143,2.6254,2.6305,2.6259,2.6446,2.6423,2.6435,2.6409,2.6418,2.6424,2.641,2.6264,0,0,0,0,0,2.55,2.558,2.5675,2.5767,2.5804,2.5876,2.5926,2.5958,2.6039,2.6072,2.614,2.622,2.6309,2.6366,2.6452,2.6571,2.6597,2.6621,2.6627,2.6632,2.6643,2.6713,2.6725,2.6591,2.6591,2.6591,0,0,2.552,2.5591,2.5638,2.5765,2.5827,2.591,2.5902,2.5991,2.6054,2.6086,2.6197,2.625,2.6344,2.6461,2.6517,2.6508,2.6686,2.664,2.6643,2.6652,2.6721,2.6733,2.6745,2.6595,2.6594,2.6594,0,0,2.5599,2.566,2.5744,2.5806,2.59,2.5948,2.5968,2.6067,2.6103,2.6215,2.6242,2.6319,2.6469,2.6535,2.6589,2.6694,2.6712,2.6721,2.6756,2.6824,2.6834,2.6844,2.6885,2.6898,2.6731,2.6731,2.6731,0,2.5613,2.5737,2.5786,2.5873,2.593,2.596,2.6048,2.6107,2.6224,2.6264,2.6251,2.6442,2.6507,2.6642,2.6667,2.6708,2.6736,2.671,2.6828,2.6839,2.6849,2.6888,2.6903,2.6731,2.6731,2.6731,2.6731,0,2.5751,2.5837,2.5894,2.6006,2.6068,2.6155,2.6219,2.6277,2.6304,2.6353,2.6469,2.6548,2.6652,2.6686,2.6713,2.6826,2.6817,2.6816,2.6794,2.6861,2.6899,2.6915,2.6732,2.6732,2.6732,2.6732,0,0,2.5823,2.5961,2.5981,2.6033,2.6139,2.6208,2.6298,2.6398,2.6448,2.6528,2.6607,2.6734,2.6734,2.6794,2.6829,2.6888,2.697,2.688,2.6883,2.6896,2.7103,2.7105,2.7121,2.6981,2.6984,2.6986,2.7096,0,2.5917,2.6076,2.6123,2.6258,2.634,2.6371,2.645,2.6525,2.6574,2.6653,2.6708,2.6798,2.6789,2.6826,2.6885,2.6947,2.7013,2.694,2.7058,2.7062,2.7036,2.7141,2.7143,2.7242,2.711,2.7113,2.7115,0,2.6047,2.6129,2.6272,2.6369,2.6405,2.6475,2.6572,2.6645,2.6732,2.6764,2.6832,2.6862,2.696,2.6931,2.7069,2.7018,2.7069,2.7107,2.7112,2.7127,2.7094,2.7161,2.7274,2.729,2.7138,2.7136,2.7135,0,2.6089,2.6235,2.634,2.6383,2.6499,2.6547,2.6598,2.6682,2.674,2.6826,2.6864,2.696,2.7013,2.7088,2.7144,2.7118,2.7278,2.7253,2.731,2.7309,2.7344,2.7342,2.747,2.7373,2.7373,2.7372,2.7372,0,2.619,2.6277,2.6361,2.6425,2.6524,2.6578,2.6676,2.6729,2.6804,2.6881,2.6914,2.6987,2.7055,2.7138,2.7183,2.7291,2.7315,2.7345,2.7357,2.7344,2.734,2.738,2.7376,2.7376,2.7375,2.7375,2.7374,0,2.6255,2.6314,2.6431,2.653,2.6557,2.6626,2.6713,2.6779,2.6829,2.6927,2.6953,2.7033,2.7132,2.7195,2.7321,2.7351,2.7472,2.7479,2.7442,2.7448,2.7502,2.7497,2.7663,2.7688,2.7571,2.7572,2.7573,0,2.6316,2.6384,2.6491,2.6544,2.6595,2.6681,2.674,2.6796,2.6857,2.6962,2.7015,2.7116,2.72,2.7357,2.7428,2.7526,2.7538,2.7589,2.7553,2.7539,2.7543,2.7539,2.7547,2.7596,2.7597,2.7598,2.7598,0,2.642,2.6446,2.6529,2.6623,2.6692,2.6769,2.6847,2.6889,2.6959,2.7026,2.7127,2.7192,2.7321,2.7422,2.7526,2.7581,2.7603,2.7609,2.7628,2.7617,2.7593,2.761,2.7461,2.7606,2.7605,2.7604,2.7604,2.7604,2.6488,2.655,2.6635,2.6727,2.6791,2.6862,2.6929,2.6988,2.7072,2.7181,2.7209,2.7316,2.7403,2.7545,2.7602,2.7688,2.7682,2.7708,2.7716,2.7722,2.7724,2.7577,2.7707,2.7707,2.7707,2.7707,2.7707,0,2.6596,2.6652,2.6736,2.6842,2.6916,2.6927,2.7013,2.7075,2.7167,2.7246,2.7328,2.7445,2.7544,2.7622,2.7724,2.7778,2.7791,2.7803,2.7801,2.7814,2.7723,2.7698,2.7791,2.7791,2.7791,2.7791,2.7791,2.7791,2.6661,2.6767,2.6804,2.6944,2.7,2.7104,2.7152,2.722,2.7283,2.7412,2.7494,2.7543,2.7624,2.7732,2.7823,2.7844,2.7882,2.7893,2.7916,2.7829,2.782,2.7812,2.7788,2.7899,2.79,2.8001,2.8002,2.8002]}]]